Regional Weather Roundup
Issued by NWS Glasgow, MT

Home | Current Version | Previous Version | Text Only | Print | Product List | Glossary On
Versions: 1 2 3 4 5 6 7 8 9 10 11 12 13 14 15 16 17 18 19 20 21 22 23 24 25 26 27 28 29 30 31 32 33 34 35 36 37 38 39 40 41 42 43 44 45 46 47 48 49 50
000
ASUS45 KGGW 251415
RWRGGW
HOURLY REGIONAL WEATHER ROUNDUP FOR NORTHEAST MONTANA
NATIONAL WEATHER SERVICE GLASGOW MONTANA
800 AM MDT WED MAY 25 2016

NOTE: "FAIR" INDICATES FEW OR NO CLOUDS BELOW 12,000 FEET WITH NO
SIGNIFICANT WEATHER AND/OR OBSTRUCTIONS TO VISISBILITY.

NORTHEAST MONTANA


CITY           SKY/WX    TMP DP  RH WIND       PRES   REMARKS
GLASGOW        CLOUDY    49  44  83 E6        29.88S
PLENTYWOOD       N/A     52  49  89 N6          N/A
WOLF POINT     CLOUDY    53  49  86 E3        29.89S
JORDAN           N/A     49  44  83 CALM      29.89S
WINNETT          N/A     47  41  80 SW3         N/A
SIDNEY         HVY RAIN  52  48  87 NW14      29.86R FOG
GLENDIVE       CLOUDY    48  46  93 N15       29.88F
MALTA            N/A     49  46  90 NE1         N/A
SCOBEY           N/A     43  34  70 CALM      29.89R
OPHEIM           N/A     46  43  87 SE1       29.76R

FORT PECK REPORTS


CITY           SKY/WX    TMP DP  RH WIND       PRES   REMARKS
FORT PECK        N/A     49  44  83 E3          N/A
THE PINES        N/A     50  43  77 N1          N/A

SOUTHEAST MONTANA


CITY           SKY/WX    TMP DP  RH WIND       PRES   REMARKS
BILLINGS       MOSUNNY   50  43  77 SW7       29.92R
MILES CITY     LGT RAIN  52  48  86 CALM      29.88S
BAKER          CLOUDY    49  47  93 NW14      29.86R
LIVINGSTON     CLOUDY    45  39  79 NW8       29.95R

CENTRAL MONTANA


CITY           SKY/WX    TMP DP  RH WIND       PRES   REMARKS
HAVRE            N/A    N/A N/A N/A MISG      29.88R
LEWISTOWN      SUNNY     49  40  71 CALM      29.91S
GREAT FALLS    SUNNY     49  40  71 SW13      29.90S
CUT BANK       MOSUNNY   47  43  86 NW7       29.88S
HELENA         SUNNY     45  40  82 N3        29.95S
BUTTE          MOSUNNY   36  33  89 CALM      30.01R
BOZEMAN        PTSUNNY   47  40  76 CALM      29.97S

WESTERN MONTANA


CITY           SKY/WX    TMP DP  RH WIND       PRES   REMARKS
MISSOULA       CLOUDY    43  40  89 CALM      30.02S
KALISPELL      NOT AVBL

NORTH DAKOTA


CITY           SKY/WX    TMP DP  RH WIND       PRES   REMARKS
WILLISTON      CLOUDY    54  49  83 N9        29.84S
DICKINSON      CLOUDY    54  51  90 SE7       29.81S
MINOT          CLOUDY    59  55  87 NW3       29.82F
BISMARCK       PTSUNNY   61  55  81 N3        29.81F

SOUTHERN SASKATCHEWAN


CITY           SKY/WX    TMP DP  RH WIND       PRES   REMARKS
REGINA         PTSUNNY   48  43  81 SE5       29.90S
ESTEVAN        LGT RAIN  55  46  71 NE10      29.85F
SWIFT CURRENT  FOG       46  46 100 W5        29.88S VSB 1/8




USA.gov is the U.S. government's official web portal to all federal, state and local government web resources and services.